Location: Degersen
(52.2871°N, 9.5716°E)
Time: 21:07:42
(UTC+00:00)

SL-23 DEB - Pass Details

Date: 20 January 2026
Orbit: 423 x 3435 km, 51.4° (Epoch: 16 February)

Event Time Altitude Azimuth Distance (km) Brightness Sun altitude
Exits shadow 06:06:51 14° 264° (W) 1,276 5.1 -10.8°
Maximum altitude 06:09:26 79° 178° (S) 450 3.4 -10.4°
Drops below altitude 10° 06:13:02 10° 92° (E) 1,747 7.7 -9.9°
Sets 06:15:34 0° 91° (E) 2,874 9.0 -9.5°
